Location: Izdebno
(52.6670°N, 16.2170°E)
Time: 03:32:20
(UTC+02:00)

Transit 4A - Pass Details

Date: 28 February 2024
Orbit: 871 x 972 km, 66.8° (Epoch: 22 April)

Event Time Altitude Azimuth Distance (km) Brightness Sun altitude
Rises 00:02:54 0° 185° (S) 3,599 - -45.6°
Reaches altitude 10° 00:05:40 10° 176° (S) 2,644 - -45.6°
Maximum altitude 00:11:06 34° 114° (ESE) 1,475 - -45.6°
Drops below altitude 10° 00:16:26 10° 51° (NE) 2,596 - -45.5°
Exits shadow 00:16:57 - 49° (NE) 2,766 10.7 -45.5°
Sets 00:19:07 0° 43° (NE) 3,525 11.4 -45.5°
